THOR ABLESTAR DEB *, 18651

Orbit data source: Space-Track

THOR ABLESTAR DEB *, 18651 is space debris in LEO originally from a launch on Thu, 29 Jun 1961 UTC launched from the Air Force Eastern Test Range (AFETR). Debris objects in space refer to the collection of defunct objects orbiting the Earth. Examples of debris include non-operational satellites, rocket bodies, and fragments generated from explosions, collisions, or faulty payload assembly.

Loading next visibility...
Identifier
18651, 1961-015LW
Orbit
LEO
Country
Flag of USUS
Related business
Manufacturer
Unknown
Mission
Spacecraft
Bus & Motor
Unknown
Mass
Unknown
Launch date (UTC)
1961-06-29 (64 years ago)
Launch vehicle
Unknown
Launch site
Air Force Eastern Test Range (AFETR)
Object type
Payload
Rocket body
Debris
Shape & HBR
Unknown shape, 0.2 m
Radar Cross Section
Small (<0.1 m²)

Expand to show TLE details & history
Last TLE update: 3 days ago

TLE from 3 days ago
0 THOR ABLESTAR DEB *
1 18651U 61015LW  25342.47138582 -.00000005  00000-0  14586-3 0  9991
2 18651  65.6988 253.1741 0746802 349.7196 187.9957 12.40425151580648
Epoch: 2025-12-08T11:18Z
TLE epoch observation values (Epoch: 2025-12-08T11:18:47.734Z)
Latitude
3.00189°
Longitude
-175.34547°
Altitude
2,090.104 km
Speed
6.604 km/s
True Right ascension
04h 47m 17s
True Declination
2° 59' 12"
Sunlit
Object was in full shadow at epoch
Visualization orbit readout
Latitude
Unknown
Longitude
Unknown
Altitude
Unknown
Speed
Unknown
Apparent Right ascension
Unknown
Apparent Declination
Unknown
Sunlit
N/A
Visualization observer readout
Local Sidereal Time
12:49:04
Azimuth
Unknown
Elevation
Unknown
Doppler factor
Unknown
Orbital elements
Apogee altitude
2,092.017 km
Perigee altitude
914.824 km
Semi-major axis
7,881.558 km
Eccentricity
0.07468
Inclination
65.6988°
RAAN
253.1741°
Arg. of periapsis
349.7196°
True anomaly
186.90642°
Mean anomaly
187.9957°
Eccentric anomaly
187.44153°
Mean motion
3.10188 °/min
Orbital period
116.06 mins
BSTAR
0.00014586
Loading maneuver chart data...
Computing Atmospheric mass density...

Documentation

Showing up to 5 results
|